| time (UTC) | temp F | wind direction | speed MPH | gust MPH | rain 1hr in | rain 24hr in | rain mn in | humidity % | barometer mb |
| 20260504223325 | 64 | 328 | 0.0 | 0.0 | 0.00 | 0.04 | 0.00 | 94 | |
| 20260504221828 | 64 | 328 | 0.0 | 0.0 | 0.00 | 0.04 | 0.00 | 94 | |
| 20260504220324 | 63 | 328 | 0.0 | 0.0 | 0.00 | 0.04 | 0.00 | 94 | |
| 20260504214821 | 62 | 328 | 0.0 | 0.0 | 0.00 | 0.28 | 0.00 | 94 | |
| 20260504213342 | 62 | 328 | 0.0 | 0.0 | 0.00 | 0.28 | 0.00 | 94 | |
| 20260504211818 | 61 | 328 | 0.0 | 0.0 | 0.00 | 0.28 | 0.00 | 94 | |
| 20260504210320 | 61 | 328 | 0.0 | 0.0 | 0.00 | 0.28 | 0.00 | 94 | |
| 20260504204816 | 61 | 328 | 0.0 | 0.0 | 0.00 | 0.43 | 0.00 | 94 | |
| 20260504203314 | 61 | 328 | 0.0 | 0.0 | 0.00 | 0.43 | 0.00 | 93 | |
| 20260504201817 | 61 | 328 | 0.0 | 0.0 | 0.00 | 0.43 | 0.00 | 93 | 176.6 |
| 20260504200312 | 61 | 328 | 0.0 | 0.0 | 0.00 | 0.43 | 0.00 | 93 | |
| 20260504194829 | 61 | 328 | 0.0 | 0.0 | 0.00 | 0.47 | 0.00 | 93 | |
| 20260504193310 | 61 | 328 | 0.0 | 0.0 | 0.00 | 0.47 | 0.00 | 93 | |
| 20260504191826 | 61 | 328 | 0.0 | 0.0 | 0.00 | 0.47 | 0.00 | 93 | |
| 20260504190328 | 61 | 328 | 0.0 | 2.0 | 0.00 | 0.47 | 0.00 | 93 | |
| 20260504184845 | 61 | 311 | 1.0 | 1.0 | 0.00 | 0.47 | 0.00 | 93 | |
| 20260504183322 | 62 | 310 | 0.0 | 4.0 | 0.00 | 0.47 | 0.00 | 93 | |
| 20260504181823 | 61 | 333 | 1.0 | 2.0 | 0.00 | 0.47 | 0.00 | 93 | |
| 20260504180318 | 61 | 333 | 0.0 | 2.0 | 0.00 | 0.47 | 0.00 | 93 | 708.8 |
| 20260504174816 | 61 | 333 | 0.0 | 0.0 | 0.00 | 0.47 | 0.00 | 93 | 708.8 |
| 20260504173315 | 62 | 333 | 0.0 | 0.0 | 0.00 | 0.47 | 0.00 | 93 | |
| 20260504171811 | 62 | 333 | 0.0 | 0.0 | 0.00 | 0.47 | 0.00 | 93 | |
| 20260504170334 | 62 | 333 | 0.0 | 0.0 | 0.00 | 0.47 | 0.00 | 93 | |
| 20260504160325 | 63 | 347 | 0.0 | 3.0 | 0.00 | 0.47 | 0.00 | 93 | |
| 20260504150323 | 63 | 251 | 0.0 | 2.0 | 0.00 | 0.47 | 0.00 | 93 | |
| 20260504140316 | 64 | 300 | 0.0 | 2.0 | 0.00 | 0.47 | 0.00 | 93 | 903.6 |
| 20260504130311 | 64 | 300 | 0.0 | 2.0 | 0.00 | 0.47 | 0.00 | 93 | |
| 20260504110322 | 64 | 298 | 0.0 | 2.0 | 0.00 | 0.47 | 0.09 | 92 | 608.4 |
| 20260504100314 | 63 | 298 | 0.0 | 0.0 | 0.00 | 0.47 | 0.09 | 92 | 719.1 |
| 20260504081823 | 65 | 298 | 0.0 | 0.0 | 0.00 | 0.51 | 0.09 | 90 | 719.5 |
| 20260504080339 | 65 | 298 | 0.0 | 0.0 | 0.00 | 0.51 | 0.09 | 90 | 720.6 |
| 20260504070310 | 67 | 294 | 0.0 | 0.0 | 0.00 | 0.51 | 0.09 | 88 | 728.4 |
| 20260504050316 | 73 | 304 | 1.0 | 2.0 | 0.00 | 1.57 | 0.09 | 79 | 1015.0 |
| 20260504044813 | 74 | 323 | 1.0 | 5.0 | 0.00 | 1.73 | 0.09 | 72 | |
| 20260504043315 | 74 | 15 | 2.0 | 5.0 | 0.00 | 1.73 | 0.09 | 74 | |
| 20260504041811 | 74 | 344 | 1.0 | 3.0 | 0.00 | 1.73 | 0.09 | 73 | |
| 20260504040349 | 75 | 355 | 1.0 | 2.0 | 0.00 | 1.73 | 0.09 | 74 | |
| 20260504034829 | 74 | 351 | 1.0 | 2.0 | 0.00 | 1.73 | 0.09 | 78 | 872.6 |
| 20260504033325 | 74 | 351 | 0.0 | 6.0 | 0.00 | 1.73 | 0.09 | 73 | 788.8 |
| 20260504031823 | 74 | 348 | 1.0 | 5.0 | 0.00 | 1.73 | 0.09 | 74 | |
| 20260504030323 | 74 | 10 | 1.0 | 3.0 | 0.00 | 1.73 | 0.09 | 74 | |
| 20260504024820 | 75 | 10 | 2.0 | 3.0 | 0.00 | 2.01 | 0.09 | 76 | |
| 20260504023321 | 75 | 355 | 1.0 | 2.0 | 0.00 | 2.01 | 0.09 | 77 | |
| 20260504021819 | 74 | 316 | 1.0 | 2.0 | 0.00 | 2.01 | 0.09 | 80 | 719.8 |
| 20260504020338 | 73 | 323 | 1.0 | 3.0 | 0.00 | 2.01 | 0.09 | 83 | 719.9 |
| 20260504014818 | 72 | 21 | 1.0 | 2.0 | 0.00 | 2.01 | 0.09 | 83 | 707.8 |
| 20260504013313 | 72 | 326 | 2.0 | 3.0 | 0.00 | 2.01 | 0.09 | 83 | 721.2 |
| 20260504011831 | 71 | 17 | 0.0 | 3.0 | 0.00 | 2.01 | 0.09 | 87 | 721.2 |
| 20260504010311 | 71 | 355 | 1.0 | 4.0 | 0.00 | 2.01 | 0.09 | 89 | 721.3 |
| 20260504004828 | 71 | 333 | 1.0 | 6.0 | 0.00 | 2.05 | 0.09 | 92 | 719.3 |
| 20260504003329 | 70 | 262 | 0.0 | 2.0 | 0.04 | 2.05 | 0.09 | 94 | 719.5 |
| 20260504001826 | 67 | 155 | 1.0 | 1.0 | 0.04 | 2.05 | 0.09 | 94 | 720.7 |
| 20260504000322 | 66 | 178 | 0.0 | 0.0 | 0.04 | 2.05 | 0.09 | 94 | 719.6 |
| 20260503234823 | 66 | 142 | 0.0 | 0.0 | 0.04 | 2.05 | 0.09 | 94 | 719.9 |
| 20260503233319 | 66 | 142 | 0.0 | 0.0 | 0.00 | 2.01 | 0.09 | 94 | 721.2 |
| 20260503231816 | 65 | 142 | 0.0 | 0.0 | 0.00 | 2.01 | 0.09 | 94 | 721.5 |
| 20260503230318 | 65 | 142 | 0.0 | 0.0 | 0.00 | 2.01 | 0.09 | 94 | 720.0 |
| 20260503224814 | 64 | 142 | 0.0 | 0.0 | 0.00 | 2.05 | 0.09 | 94 | 721.8 |